Weather History for LELL - February, 2013

Change the Weather History Date:

Wednesday, February 27, 2013

  Actual Average (LEBL) Record (LEBL)
Temperature  
Mean Temperature 42 °F -  
Max Temperature 51 °F 55 °F 64 °F (1998)
Min Temperature 32 °F 41 °F 35 °F (2013)
Degree Days  
Heating Degree Days 24    
Moisture  
Dew Point 31 °F    
Average Humidity 54    
Maximum Humidity 80    
Minimum Humidity 35    
Precipitation  
Precipitation 0.00 in - - ()
Sea Level Pressure  
Sea Level Pressure 30.13 in    
Wind  
Wind Speed 1 mph ()    
Max Wind Speed 7 mph    
Max Gust Speed -    
Visibility 6.2 miles    
Events      
Averages and records for this station are not official NWS values.
T = Trace of Precipitation, MM = Missing Value Source: Averaged Metar Reports

Daily Weather History Graph

Daily Weather History Graph

Search for Another Location

Airport or City:

Trip Planner

Search our weather history database for the weather conditions in past years. The results will help you decide how hot, cold, wet, or windy it might be!

Date:

Astronomy

Feb. 27, 2013 Rise Set
Actual Time 7:29 AM CET 6:39 PM CET
Civil Twilight 7:01 AM CET 7:07 PM CET
Nautical Twilight 6:29 AM CET 7:39 PM CET
Astronomical Twilight 5:57 AM CET 8:11 PM CET
Moon 8:46 PM CET 7:54 AM CET
Length of Visible Light 12h 06m
Length of Day
11h 10m
Full, 97% of the Moon is Illuminated
Feb 27
Full
Mar 4
Last Quarter
Mar 11
New
Mar 19
First Quarter
Mar 27
Full

Hourly Weather History & Observations

Time (CET) Temp. Dew Point Humidity Pressure Visibility Wind Dir Wind Speed Gust Speed Precip Events Conditions
8:00 AM 32.0 °F 26.6 °F 80% 30.18 in 6.2 mi Calm Calm - N/A   Mostly Cloudy
8:30 AM 32.0 °F 26.6 °F 80% 30.18 in 6.2 mi Calm Calm - N/A   Scattered Clouds
9:30 AM 39.2 °F 30.2 °F 70% 30.18 in 6.2 mi Calm Calm - N/A   Partly Cloudy
10:30 AM 41.0 °F 28.4 °F 61% 30.18 in 6.2 mi East 1.2 mph - N/A   Mostly Cloudy
11:00 AM 42.8 °F 30.2 °F 61% 30.18 in 6.2 mi Calm Calm - N/A   Mostly Cloudy
11:30 AM 46.4 °F 30.2 °F 53% 30.18 in 6.2 mi Calm Calm - N/A   Scattered Clouds
12:00 PM 46.4 °F 28.4 °F 50% 30.18 in 6.2 mi Calm Calm - N/A   Mostly Cloudy
12:30 PM 48.2 °F 26.6 °F 43% 30.15 in 6.2 mi Variable 1.2 mph - N/A   Mostly Cloudy
1:00 PM 50.0 °F 23.0 °F 35% 30.15 in 6.2 mi Variable 2.3 mph - N/A   Mostly Cloudy
1:30 PM 50.0 °F 26.6 °F 40% 30.15 in 6.2 mi SE 1.2 mph - N/A   Mostly Cloudy
2:00 PM 51.8 °F 30.2 °F 44% 30.12 in 6.2 mi Variable 1.2 mph - N/A   Scattered Clouds
2:30 PM 51.8 °F 30.2 °F 44% 30.12 in 6.2 mi Variable 2.3 mph - N/A   Scattered Clouds
3:00 PM 50.0 °F 30.2 °F 47% 30.12 in 6.2 mi East 5.8 mph - N/A   Mostly Cloudy
3:30 PM 51.8 °F 33.8 °F 50% 30.09 in 6.2 mi ENE 1.2 mph - N/A   Mostly Cloudy
4:00 PM 51.8 °F 33.8 °F 50% 30.09 in 6.2 mi ENE 4.6 mph - N/A   Mostly Cloudy
4:30 PM 51.8 °F 33.8 °F 50% 30.09 in 6.2 mi Variable 2.3 mph - N/A   Mostly Cloudy
5:00 PM 50.0 °F 35.6 °F 58% 30.09 in 6.2 mi SE 6.9 mph - N/A   Scattered Clouds
5:30 PM 50.0 °F 35.6 °F 58% 30.09 in 6.2 mi SE 3.5 mph - N/A   Scattered Clouds
6:00 PM 51.8 °F 35.6 °F 54% 30.09 in 6.2 mi Calm Calm - N/A   Mostly Cloudy
6:30 PM 50.0 °F 35.6 °F 58% 30.09 in 6.2 mi ENE 6.9 mph - N/A   Mostly Cloudy